Time,TemperatureF,DewpointF,PressureIn,WindDirection,WindDirectionDegrees,WindSpeedMPH,WindSpeedGustMPH,Humidity,HourlyPrecipIn,Conditions,Clouds,dailyrainin,SoftwareType,DateUTC
2013-06-03 00:03:00,56.0,50.0,29.94,West,276,1.0,7.0,81,0.00,,,0.00,,2013-06-03 04:03:00,
2013-06-03 00:13:00,56.0,50.0,29.94,West,276,1.0,7.0,81,0.00,,,0.00,,2013-06-03 04:13:00,
2013-06-03 00:23:00,55.0,49.0,29.94,West,277,1.0,9.0,80,0.00,,,0.00,,2013-06-03 04:23:00,
2013-06-03 00:33:00,55.0,49.0,29.93,WNW,283,3.0,7.0,80,0.00,,,0.00,,2013-06-03 04:33:00,
2013-06-03 00:42:00,55.0,49.0,29.93,WNW,283,3.0,7.0,80,0.00,,,0.00,,2013-06-03 04:42:00,
2013-06-03 00:53:00,54.0,48.0,29.93,West,281,2.0,6.0,81,0.00,,,0.00,,2013-06-03 04:53:00,
2013-06-03 01:02:00,54.0,49.0,29.93,NNE,13,1.0,4.0,83,0.00,,,0.00,,2013-06-03 05:02:00,
2013-06-03 01:12:00,54.0,49.0,29.93,NNE,13,1.0,4.0,83,0.00,,,0.00,,2013-06-03 05:12:00,
2013-06-03 01:22:00,53.0,48.0,29.94,North,354,1.0,3.0,83,0.00,,,0.00,,2013-06-03 05:22:00,
2013-06-03 01:32:00,53.0,48.0,29.94,West,265,1.0,6.0,84,0.00,,,0.00,,2013-06-03 05:32:00,
2013-06-03 01:43:00,53.0,48.0,29.94,West,265,1.0,6.0,84,0.00,,,0.00,,2013-06-03 05:43:00,
2013-06-03 01:52:00,53.0,49.0,29.94,WNW,287,0.0,3.0,85,0.00,,,0.00,,2013-06-03 05:52:00,
2013-06-03 02:02:00,53.0,49.0,29.95,NNW,332,1.0,5.0,85,0.00,,,0.00,,2013-06-03 06:02:00,
2013-06-03 02:12:00,53.0,49.0,29.95,NNW,332,1.0,5.0,85,0.00,,,0.00,,2013-06-03 06:12:00,
2013-06-03 02:22:00,53.0,49.0,29.94,WNW,286,0.0,5.0,85,0.00,,,0.00,,2013-06-03 06:22:00,
2013-06-03 02:32:00,53.0,48.0,29.95,WNW,300,1.0,6.0,84,0.00,,,0.00,,2013-06-03 06:32:00,
2013-06-03 02:42:00,53.0,48.0,29.95,WNW,300,1.0,6.0,84,0.00,,,0.00,,2013-06-03 06:42:00,
2013-06-03 02:52:00,53.0,48.0,29.95,NNW,338,1.0,4.0,84,0.00,,,0.00,,2013-06-03 06:52:00,
2013-06-03 03:02:00,53.0,49.0,29.95,NW,325,1.0,6.0,85,0.00,,,0.00,,2013-06-03 07:02:00,
2013-06-03 03:12:00,53.0,49.0,29.95,NW,325,1.0,6.0,85,0.00,,,0.00,,2013-06-03 07:12:00,
2013-06-03 03:22:00,53.0,49.0,29.95,North,358,0.0,4.0,85,0.00,,,0.00,,2013-06-03 07:22:00,
2013-06-03 03:32:00,53.0,49.0,29.95,North,358,0.0,4.0,85,0.00,,,0.00,,2013-06-03 07:32:00,
2013-06-03 03:42:00,53.0,49.0,29.95,North,358,0.0,4.0,85,0.00,,,0.00,,2013-06-03 07:42:00,
2013-06-03 03:52:00,54.0,50.0,29.95,North,350,1.0,4.0,86,0.00,,,0.00,,2013-06-03 07:52:00,
2013-06-03 04:02:00,54.0,50.0,29.95,NNE,14,0.0,2.0,86,0.00,,,0.00,,2013-06-03 08:02:00,
2013-06-03 04:12:00,54.0,50.0,29.95,NNE,14,0.0,2.0,86,0.00,,,0.00,,2013-06-03 08:12:00,
2013-06-03 04:22:00,54.0,50.0,29.95,North,6,0.0,3.0,87,0.00,,,0.00,,2013-06-03 08:22:00,
2013-06-03 04:32:00,54.0,50.0,29.96,NNW,348,1.0,3.0,87,0.00,,,0.00,,2013-06-03 08:32:00,
2013-06-03 04:42:00,54.0,50.0,29.96,NNW,348,1.0,3.0,87,0.00,,,0.00,,2013-06-03 08:42:00,
2013-06-03 04:52:00,54.0,50.0,29.96,North,5,1.0,3.0,87,0.00,,,0.00,,2013-06-03 08:52:00,
2013-06-03 05:02:00,55.0,51.0,29.96,NNE,14,2.0,5.0,85,0.00,,,0.00,,2013-06-03 09:02:00,
2013-06-03 05:12:00,55.0,51.0,29.96,NNE,14,2.0,5.0,85,0.00,,,0.00,,2013-06-03 09:12:00,
2013-06-03 05:22:00,54.0,48.0,29.96,NE,37,7.0,11.0,80,0.00,,,0.00,,2013-06-03 09:22:00,
2013-06-03 05:33:00,54.0,48.0,29.97,NE,39,4.0,9.0,81,0.00,,,0.00,,2013-06-03 09:33:00,
2013-06-03 05:42:00,54.0,48.0,29.97,NE,39,4.0,9.0,81,0.00,,,0.00,,2013-06-03 09:42:00,
2013-06-03 05:52:00,54.0,48.0,29.97,NNE,22,7.0,11.0,80,0.00,,,0.00,,2013-06-03 09:52:00,
2013-06-03 06:03:00,53.0,47.0,29.98,North,11,6.0,10.0,79,0.00,,,0.00,,2013-06-03 10:03:00,
2013-06-03 06:12:00,53.0,47.0,29.98,North,11,6.0,10.0,79,0.00,,,0.00,,2013-06-03 10:12:00,
2013-06-03 06:22:00,53.0,47.0,29.98,NE,56,5.0,10.0,79,0.00,,,0.00,,2013-06-03 10:22:00,
2013-06-03 06:33:00,53.0,47.0,29.98,NNE,18,4.0,7.0,79,0.00,,,0.00,,2013-06-03 10:33:00,
2013-06-03 06:42:00,53.0,47.0,29.98,NNE,18,4.0,7.0,79,0.00,,,0.00,,2013-06-03 10:42:00,
2013-06-03 06:52:00,52.0,46.0,29.98,NNE,25,2.0,9.0,80,0.00,,,0.00,,2013-06-03 10:52:00,
2013-06-03 07:02:00,52.0,46.0,29.99,NNE,30,5.0,11.0,79,0.00,,,0.00,,2013-06-03 11:02:00,
2013-06-03 07:12:00,52.0,46.0,29.99,NNE,30,5.0,11.0,79,0.00,,,0.00,,2013-06-03 11:12:00,
2013-06-03 07:22:00,52.0,46.0,29.99,North,4,4.0,8.0,80,0.00,,,0.00,,2013-06-03 11:22:00,
2013-06-03 07:32:00,52.0,46.0,30.00,NNW,342,3.0,8.0,80,0.00,,,0.00,,2013-06-03 11:32:00,
2013-06-03 07:42:00,52.0,46.0,30.00,NNW,342,3.0,8.0,80,0.00,,,0.00,,2013-06-03 11:42:00,
2013-06-03 07:52:00,52.0,45.0,30.00,NNE,33,5.0,13.0,78,0.00,,,0.00,,2013-06-03 11:52:00,
2013-06-03 08:02:00,52.0,45.0,30.01,NNE,33,4.0,10.0,76,0.00,,,0.00,,2013-06-03 12:02:00,
2013-06-03 08:12:00,52.0,45.0,30.01,NNE,33,4.0,10.0,76,0.00,,,0.00,,2013-06-03 12:12:00,
2013-06-03 08:22:00,53.0,46.0,30.01,North,1,3.0,11.0,77,0.00,,,0.00,,2013-06-03 12:22:00,
2013-06-03 08:32:00,53.0,45.0,30.01,NE,36,5.0,9.0,75,0.00,,,0.00,,2013-06-03 12:32:00,
2013-06-03 08:42:00,53.0,45.0,30.01,NE,36,5.0,9.0,75,0.00,,,0.00,,2013-06-03 12:42:00,
2013-06-03 08:52:00,53.0,45.0,30.01,North,11,2.0,9.0,74,0.00,,,0.00,,2013-06-03 12:52:00,
2013-06-03 09:02:00,53.0,44.0,30.01,NNE,16,5.0,9.0,72,0.00,,,0.00,,2013-06-03 13:02:00,
2013-06-03 09:12:00,53.0,44.0,30.01,NNE,16,5.0,9.0,72,0.00,,,0.00,,2013-06-03 13:12:00,
2013-06-03 09:22:00,53.0,45.0,30.02,NE,49,5.0,10.0,73,0.00,,,0.00,,2013-06-03 13:22:00,
2013-06-03 09:32:00,54.0,45.0,30.02,NE,41,5.0,9.0,72,0.00,,,0.00,,2013-06-03 13:32:00,
2013-06-03 09:43:00,54.0,45.0,30.02,NE,41,5.0,9.0,72,0.00,,,0.00,,2013-06-03 13:43:00,
2013-06-03 09:52:00,54.0,46.0,30.02,North,1,3.0,8.0,75,0.00,,,0.00,,2013-06-03 13:52:00,
2013-06-03 10:02:00,55.0,45.0,30.02,NNW,347,5.0,9.0,69,0.00,,,0.00,,2013-06-03 14:02:00,
2013-06-03 10:13:00,55.0,45.0,30.02,NNW,347,5.0,9.0,69,0.00,,,0.00,,2013-06-03 14:13:00,
2013-06-03 10:22:00,55.0,45.0,30.02,NNW,346,3.0,8.0,70,0.00,,,0.00,,2013-06-03 14:22:00,
2013-06-03 10:32:00,56.0,45.0,30.02,NE,43,5.0,10.0,67,0.00,,,0.00,,2013-06-03 14:32:00,
2013-06-03 10:42:00,56.0,45.0,30.02,NE,43,5.0,10.0,67,0.00,,,0.00,,2013-06-03 14:42:00,
2013-06-03 10:52:00,56.0,46.0,30.03,NE,43,4.0,11.0,68,0.00,,,0.00,,2013-06-03 14:52:00,
2013-06-03 11:02:00,57.0,47.0,30.03,NE,37,5.0,10.0,68,0.00,,,0.00,,2013-06-03 15:02:00,
2013-06-03 11:12:00,57.0,47.0,30.03,NE,37,5.0,10.0,68,0.00,,,0.00,,2013-06-03 15:12:00,
2013-06-03 11:22:00,58.0,43.0,30.03,NE,51,6.0,11.0,57,0.00,,,0.00,,2013-06-03 15:22:00,
2013-06-03 11:33:00,58.0,45.0,30.04,ENE,74,4.0,8.0,61,0.00,,,0.00,,2013-06-03 15:33:00,
2013-06-03 11:43:00,58.0,45.0,30.04,ENE,74,4.0,8.0,61,0.00,,,0.00,,2013-06-03 15:43:00,
2013-06-03 11:53:00,59.0,44.0,30.04,North,350,6.0,10.0,57,0.00,,,0.00,,2013-06-03 15:53:00,
2013-06-03 12:03:00,59.0,45.0,30.03,NE,46,5.0,10.0,60,0.00,,,0.00,,2013-06-03 16:03:00,
2013-06-03 12:13:00,59.0,45.0,30.03,NE,46,5.0,10.0,60,0.00,,,0.00,,2013-06-03 16:13:00,
2013-06-03 12:23:00,60.0,45.0,30.03,NE,43,5.0,10.0,57,0.00,,,0.00,,2013-06-03 16:23:00,
2013-06-03 12:33:00,60.0,42.0,30.03,NE,43,7.0,11.0,52,0.00,,,0.00,,2013-06-03 16:33:00,
2013-06-03 12:42:00,61.0,43.0,30.04,NNE,29,5.0,11.0,51,0.00,,,0.00,,2013-06-03 16:42:00,
2013-06-03 12:53:00,61.0,43.0,30.04,NNE,29,5.0,11.0,51,0.00,,,0.00,,2013-06-03 16:53:00,
2013-06-03 13:02:00,61.0,42.0,30.04,ENE,63,7.0,11.0,49,0.00,,,0.00,,2013-06-03 17:02:00,
2013-06-03 13:12:00,61.0,42.0,30.04,ENE,63,7.0,11.0,49,0.00,,,0.00,,2013-06-03 17:12:00,
2013-06-03 13:22:00,62.0,40.0,30.04,North,358,7.0,11.0,45,0.00,,,0.00,,2013-06-03 17:22:00,
2013-06-03 13:33:00,62.0,42.0,30.04,ENE,63,4.0,10.0,47,0.00,,,0.00,,2013-06-03 17:33:00,
2013-06-03 13:42:00,62.0,42.0,30.04,ENE,63,4.0,10.0,47,0.00,,,0.00,,2013-06-03 17:42:00,
2013-06-03 13:52:00,63.0,41.0,30.03,ENE,73,6.0,10.0,44,0.00,,,0.00,,2013-06-03 17:52:00,
2013-06-03 14:02:00,63.0,38.0,30.03,NE,37,3.0,11.0,40,0.00,,,0.00,,2013-06-03 18:02:00,
2013-06-03 14:12:00,63.0,38.0,30.03,NE,37,3.0,11.0,40,0.00,,,0.00,,2013-06-03 18:12:00,
2013-06-03 14:22:00,63.0,37.0,30.03,ENE,68,1.0,6.0,38,0.00,,,0.00,,2013-06-03 18:22:00,
2013-06-03 14:32:00,63.0,42.0,30.02,NNE,23,3.0,9.0,46,0.00,,,0.00,,2013-06-03 18:32:00,
2013-06-03 14:43:00,63.0,42.0,30.02,NNE,23,3.0,9.0,46,0.00,,,0.00,,2013-06-03 18:43:00,
2013-06-03 14:52:00,64.0,40.0,30.01,ENE,65,4.0,9.0,41,0.00,,,0.00,,2013-06-03 18:52:00,
2013-06-03 15:03:00,64.0,39.0,30.01,NNE,16,5.0,9.0,40,0.00,,,0.00,,2013-06-03 19:03:00,
2013-06-03 15:12:00,64.0,39.0,30.01,NNE,16,5.0,9.0,40,0.00,,,0.00,,2013-06-03 19:12:00,
2013-06-03 15:23:00,65.0,45.0,30.00,NNE,16,4.0,10.0,48,0.00,,,0.00,,2013-06-03 19:23:00,
2013-06-03 15:32:00,66.0,43.0,29.99,NNW,338,3.0,7.0,44,0.00,,,0.00,,2013-06-03 19:32:00,
2013-06-03 15:42:00,66.0,43.0,29.99,NNW,338,3.0,7.0,44,0.00,,,0.00,,2013-06-03 19:42:00,
2013-06-03 15:52:00,66.0,43.0,29.99,NE,43,2.0,7.0,44,0.00,,,0.00,,2013-06-03 19:52:00,
2013-06-03 16:02:00,65.0,44.0,29.99,NE,43,2.0,8.0,47,0.00,,,0.00,,2013-06-03 20:02:00,
2013-06-03 16:12:00,65.0,44.0,29.99,NE,43,2.0,8.0,47,0.00,,,0.00,,2013-06-03 20:12:00,
2013-06-03 16:22:00,66.0,43.0,29.99,North,6,5.0,10.0,43,0.00,,,0.00,,2013-06-03 20:22:00,
2013-06-03 16:33:00,66.0,43.0,29.98,West,269,5.0,8.0,43,0.00,,,0.00,,2013-06-03 20:33:00,
2013-06-03 16:43:00,66.0,43.0,29.98,West,269,5.0,8.0,43,0.00,,,0.00,,2013-06-03 20:43:00,
2013-06-03 16:52:00,66.0,46.0,29.98,WNW,302,4.0,9.0,48,0.00,,,0.00,,2013-06-03 20:52:00,
2013-06-03 17:02:00,66.0,41.0,29.98,NNE,30,2.0,5.0,40,0.00,,,0.00,,2013-06-03 21:02:00,
2013-06-03 17:12:00,66.0,41.0,29.98,NNE,30,2.0,5.0,40,0.00,,,0.00,,2013-06-03 21:12:00,
2013-06-03 17:22:00,66.0,42.0,29.98,North,355,5.0,9.0,42,0.00,,,0.00,,2013-06-03 21:22:00,
2013-06-03 17:33:00,67.0,43.0,29.99,NE,56,3.0,6.0,42,0.00,,,0.00,,2013-06-03 21:33:00,
2013-06-03 17:43:00,67.0,43.0,29.99,NE,56,3.0,6.0,42,0.00,,,0.00,,2013-06-03 21:43:00,
2013-06-03 17:53:00,67.0,46.0,29.99,North,353,3.0,11.0,46,0.00,,,0.00,,2013-06-03 21:53:00,
2013-06-03 18:03:00,66.0,43.0,29.99,NNW,333,3.0,9.0,44,0.00,,,0.00,,2013-06-03 22:03:00,
2013-06-03 18:12:00,66.0,43.0,29.99,NNW,333,3.0,9.0,44,0.00,,,0.00,,2013-06-03 22:12:00,
2013-06-03 18:22:00,67.0,46.0,29.99,North,11,4.0,9.0,46,0.00,,,0.00,,2013-06-03 22:22:00,
2013-06-03 18:33:00,68.0,47.0,29.98,NNW,343,1.0,8.0,47,0.00,,,0.00,,2013-06-03 22:33:00,
2013-06-03 18:42:00,68.0,47.0,29.98,NNW,343,1.0,8.0,47,0.00,,,0.00,,2013-06-03 22:42:00,
2013-06-03 18:52:00,67.0,45.0,29.99,NW,309,2.0,8.0,45,0.00,,,0.00,,2013-06-03 22:52:00,
2013-06-03 19:02:00,67.0,44.0,29.98,WNW,285,2.0,10.0,44,0.00,,,0.00,,2013-06-03 23:02:00,
2013-06-03 19:12:00,67.0,44.0,29.98,WNW,285,2.0,10.0,44,0.00,,,0.00,,2013-06-03 23:12:00,
2013-06-03 19:23:00,67.0,44.0,29.99,NNW,347,4.0,7.0,44,0.00,,,0.00,,2013-06-03 23:23:00,
2013-06-03 19:32:00,67.0,45.0,29.98,WNW,290,2.0,7.0,45,0.00,,,0.00,,2013-06-03 23:32:00,
2013-06-03 19:42:00,67.0,45.0,29.98,WNW,290,2.0,7.0,45,0.00,,,0.00,,2013-06-03 23:42:00,
2013-06-03 19:52:00,66.0,43.0,29.99,NNE,26,3.0,6.0,44,0.00,,,0.00,,2013-06-03 23:52:00,
2013-06-03 20:02:00,66.0,44.0,29.99,NE,47,2.0,6.0,45,0.00,,,0.00,,2013-06-04 00:02:00,
2013-06-03 20:12:00,66.0,44.0,29.99,NE,47,2.0,6.0,45,0.00,,,0.00,,2013-06-04 00:12:00,
2013-06-03 20:22:00,66.0,44.0,29.99,NW,305,0.0,3.0,45,0.00,,,0.00,,2013-06-04 00:22:00,
2013-06-03 20:32:00,66.0,45.0,30.00,NNE,20,0.0,4.0,46,0.00,,,0.00,,2013-06-04 00:32:00,
2013-06-03 20:42:00,66.0,45.0,30.00,NNE,20,0.0,4.0,46,0.00,,,0.00,,2013-06-04 00:42:00,
2013-06-03 20:52:00,65.0,45.0,30.00,NE,49,0.0,1.0,48,0.00,,,0.00,,2013-06-04 00:52:00,
2013-06-03 21:02:00,64.0,46.0,30.00,NE,49,0.0,0.0,52,0.00,,,0.00,,2013-06-04 01:02:00,
2013-06-03 21:12:00,64.0,46.0,30.00,NE,49,0.0,0.0,52,0.00,,,0.00,,2013-06-04 01:12:00,
2013-06-03 21:22:00,62.0,48.0,30.01,NE,49,0.0,0.0,60,0.00,,,0.00,,2013-06-04 01:22:00,
2013-06-03 21:32:00,60.0,51.0,30.01,ENE,75,0.0,0.0,71,0.00,,,0.00,,2013-06-04 01:32:00,
2013-06-03 21:42:00,60.0,51.0,30.01,ENE,75,0.0,0.0,71,0.00,,,0.00,,2013-06-04 01:42:00,
2013-06-03 21:52:00,59.0,51.0,30.01,ENE,75,0.0,0.0,74,0.00,,,0.00,,2013-06-04 01:52:00,
2013-06-03 22:02:00,58.0,51.0,30.02,ENE,75,0.0,1.0,78,0.00,,,0.00,,2013-06-04 02:02:00,
2013-06-03 22:12:00,58.0,51.0,30.02,ENE,75,0.0,1.0,78,0.00,,,0.00,,2013-06-04 02:12:00,
2013-06-03 22:22:00,57.0,51.0,30.03,ENE,75,0.0,1.0,80,0.00,,,0.00,,2013-06-04 02:22:00,
2013-06-03 22:32:00,56.0,51.0,30.03,ENE,75,0.0,0.0,82,0.00,,,0.00,,2013-06-04 02:32:00,
2013-06-03 22:42:00,56.0,51.0,30.03,ENE,75,0.0,0.0,82,0.00,,,0.00,,2013-06-04 02:42:00,
2013-06-03 22:52:00,55.0,50.0,30.03,ENE,75,0.0,0.0,84,0.00,,,0.00,,2013-06-04 02:52:00,
2013-06-03 23:02:00,55.0,50.0,30.04,ENE,75,0.0,0.0,83,0.00,,,0.00,,2013-06-04 03:02:00,
2013-06-03 23:12:00,55.0,50.0,30.04,ENE,75,0.0,0.0,83,0.00,,,0.00,,2013-06-04 03:12:00,
2013-06-03 23:22:00,54.0,50.0,30.04,ENE,75,0.0,0.0,87,0.00,,,0.00,,2013-06-04 03:22:00,
2013-06-03 23:33:00,54.0,51.0,30.05,ENE,75,0.0,0.0,89,0.00,,,0.00,,2013-06-04 03:33:00,
2013-06-03 23:43:00,54.0,51.0,30.05,ENE,75,0.0,0.0,89,0.00,,,0.00,,2013-06-04 03:43:00,
2013-06-03 23:53:00,54.0,51.0,30.06,ENE,75,0.0,0.0,90,0.00,,,0.00,,2013-06-04 03:53:00,